ONEWEB-0022, 45135

Orbit data source: Space-Track

ONEWEB-0022, 45135 is a payload satellite owned by One Web (UK) in LEO that was launched on Thu, 06 Feb 2020 UTC via a SOYUZ-2-1B launch vehicle from the Tyuratam Missile And Space Complex (TTMTR). Payloads include a variety of satellites, spacecraft, and rockets equipped with specific instruments for various scientific and technological missions. These include communications satellites like Starlink; space stations such as the ISS; scientific satellites like the Hubble; Earth observation satellites from companies like Planet Labs, Umbra, and HawkEye 360; GPS; miniature CubeSats for education and research; and military/defense satellites.

Loading next visibility...
ONEWEB-0022 details
Identifier
45135, 2020-008E
Orbit
LEO
Last TLE update18 hours ago
Origin
Flag of UKOne Web (UK)
ManufacturerOne Web
MissionNon-operational Commercial Communications
Bus & MotorARROW, Unknown motor
Mass148 kg wet, ~140 kg dry
Launch date (UTC)
2020-02-06 (5 years ago)
Launch vehicle
SOYUZ-2-1B
Launch site
Tyuratam Missile And Space Complex (TTMTR)
Object type
Payload
Rocket body
Debris
Shape & HBRTrap Box + 2 Pan, 5 m
Radar Cross Section2.957 m², Large (>1 m²)

Expand to show TLE details & history

TLE from 18 hours ago
0 ONEWEB-0022
1 45135U 20008E   24360.67643427 -.00000303  00000-0 -90292-3 0  9995
2 45135  87.8908 143.5655 0001628 108.4408 251.6897 13.10441330238574
Epoch: 2024-12-25T16:14Z
Definitive object data (Epoch: 2024-12-25T16:14:03.92Z)
Latitude0.00001°
Longitude165.38241°
Altitude1,224.729 km
Speed7.242 km/s
True Right ascension09h 34m 15s
True Declination0° 00' 00"
Sunlit
Object was in full shadow at TLE epoch
Visualization TLE readout
Latitude-9.13085°
Longitude164.89392°
Altitude1,226.515 km
Speed7.241 km/s
Apparent Right ascension08h 55m 59s
Apparent Declination-63° 12' 33"
Sunlit
Object is in daylight
Visualization observer readout
Local Sidereal Time09:51:58
Azimuth186.443° SSW
Elevation-13.73°
Doppler factor1
Orbital elements
Apogee altitude1,219.809 km
Perigee altitude1,217.335 km
Semi-major axis7,596.709 km
Eccentricity0.0001628
Inclination87.8908°
RAAN143.5655°
Arg. of periapsis108.4408°
True anomaly251.67199°
Mean anomaly251.6897°
Eccentric anomaly251.68084°
Mean motion3.27797 °/min
BSTAR-0.00090292
Orbital period109.82 mins
Loading maneuver chart data...
Loading historical data...
Loading historical data...
Loading historical data...
Loading historical data...
Loading historical data...
Loading historical data...
Loading historical data...

ONEWEB-0022 Visibility forecast

Observer location: undefined°, undefined

Span
Click to sort rows by Start time (UTC) header in descending order
Start Az.
Max El. time (UTC)
Max El. Az.
Max El.
End time (UTC)
End Az.
14 mins2024-12-26 10:38:46.853Z194.471° SSW2024-12-26 10:45:46.853Z274.266° WNW41.113°2024-12-26 10:52:46.853Z353.164° N
8 mins2024-12-26 20:21:46.853Z41.577° NE2024-12-26 20:24:46.853Z69.245° E17.961°2024-12-26 20:29:46.853Z114.283° SE
13 mins2024-12-26 22:09:46.853Z354.883° N2024-12-26 22:15:46.853Z285.988° WNW43.939°2024-12-26 22:22:46.853Z189.584° SSW
9 mins2024-12-27 08:41:46.853Z113.284° SE2024-12-27 08:45:46.853Z75.319° E20.304°2024-12-27 08:50:46.853Z30.467° NE
|